Regional Weather Roundup
Issued by NWS Northern Indiana

Home | Current Version | Previous Version | Graphics & Text | Print | Product List | Glossary On
Versions: 1 2 3 4 5 6 7 8 9 10 11 12 13 14 15 16 17 18 19 20 21 22 23 24 25 26 27 28 29 30 31 32 33 34 35 36 37 38 39 40 41 42 43 44 45 46 47 48 49 50
000
ASUS43 KIWX 211510
RWRIWX

KIWX WEATHER ROUNDUP
NATIONAL WEATHER SERVICE NORTHERN INDIANA
1100 AM EDT THU AUG 21 2014

NOTE: "FAIR" INDICATES FEW OR NO CLOUDS BELOW 12,000 FEET WITH NO
SIGNIFICANT WEATHER AND/OR OBSTRUCTIONS TO VISIBILITY.

* THESE STATIONS ARE NOT UNDER NWS QUALITY CONTROL. THEY ALSO MAY NOT
  REPORT WEATHER SUCH AS PRECIPITATION OR FOG.

INZ001>027-211600-
NORTHERN INDIANA

CITY           SKY/WX    TMP DP  RH WIND       PRES   REMARKS
GARY*          LGT RAIN  73  72  94 S7        29.96F
VALPARAISO     LGT RAIN  70  69  97 S6        29.98F
MICHIGAN CITY* LGT RAIN  70  70 100 CALM      29.99F
LAPORTE*       LGT RAIN  69  69 100 CALM      29.99F
KNOX*          CLOUDY    71  68  91 CALM      29.98F
SOUTH BEND     CLOUDY    72  69  90 SW5       30.02S
GOSHEN         LGT RAIN  74  69  85 SW7       30.02F
MONTICELLO*    LGT RAIN  71  71  97 CALM      30.01S
LOGANSPORT*    LGT RAIN  70  68  94 E3        30.04S
ROCHESTER*     RAIN      72  72 100 CALM      30.04S
WARSAW*        LGT RAIN  70  70 100 W3        30.03F
ANGOLA*        PTSUNNY   75  68  78 SW7       30.03S
FORT WAYNE     TSTM      71  69  93 W8        30.05R FOG
HUNTINGTON*    RAIN      69  69  99 S3        30.05S
PERU/GRISSOM   CLOUDY    70  70 100 E6        30.04S
MARION*        HVY RAIN  68  67  97 S5        30.08R

$$
INZ028>050-211600-
CENTRAL INDIANA

CITY           SKY/WX    TMP DP  RH WIND       PRES   REMARKS
LAFAYETTE      CLOUDY    73  71  93 CALM      30.01S
KOKOMO*        CLOUDY    70  68  94 SE3       30.04S
MUNCIE*        TSTM      70  67  90 N7        30.08S VSB 3/4
INDIANAPOLIS   CLOUDY    73  69  87 S7        30.03R

$$
MIZ043>046-050>051-056>058-064>065-071>073-077>080-211600-
SOUTHWEST LOWER MICHIGAN

CITY           SKY/WX    TMP DP  RH WIND       PRES   REMARKS
BATTLE CREEK   PTSUNNY   77  68  73 NW6       30.01R
BENTON HARBOR  CLOUDY    74  68  81 SW8       29.99F
COLDWATER*     CLOUDY    76  69  77 SW7       30.02R
HILLSDALE*     PTSUNNY   78  71  79 CALM      30.02R
HOLLAND        PTSUNNY   77  70  79 W6        29.99F
GRAND RAPIDS   PTSUNNY   75  69  81 E6        30.00S
KALAMAZOO      CLOUDY    78  66  66 W7        30.00R
STURGIS*       CLOUDY    73  68  83 SW8       30.03R
THREE RIVERS*  LGT RAIN  74  67  79 SW8       30.02R

$$
OHZ001>008-015>018-024>025-211600-
NORTHWEST OHIO

CITY           SKY/WX    TMP DP  RH WIND       PRES   REMARKS
WAUSEON*       PTSUNNY   77  72  83 SW7G13    30.03R
DEFIANCE       CLOUDY    76  68  76 SW10      30.04R
FINDLAY        LGT RAIN  75  68  78 W9        30.04R
TOLEDO METCALF PTSUNNY   79  69  71 SW10      30.02R
LIMA           RAIN      73  69  87 SW12      30.07R FOG

$$
&&


USA.gov is the U.S. government's official web portal to all federal, state and local government web resources and services.